TimeCDT,TemperatureF,Dew PointF,Humidity,Sea Level PressureIn,VisibilityMPH,Wind Direction,Wind SpeedMPH,Gust SpeedMPH,PrecipitationIn,Events,Conditions,WindDirDegrees,DateUTC
12:53 AM,53.1,39.9,61,29.94,10.0,ESE,3.5,-,N/A,,Overcast,120,2013-05-28 05:53:00
1:53 AM,52.0,41.0,66,29.92,10.0,ESE,5.8,-,N/A,,Overcast,110,2013-05-28 06:53:00
2:53 AM,52.0,41.0,66,29.90,10.0,SE,8.1,-,N/A,,Overcast,140,2013-05-28 07:53:00
3:53 AM,51.1,42.1,71,29.87,10.0,East,6.9,-,N/A,,Overcast,100,2013-05-28 08:53:00
4:53 AM,51.1,42.1,71,29.88,10.0,East,5.8,-,N/A,,Overcast,100,2013-05-28 09:53:00
5:53 AM,50.0,42.1,74,29.86,10.0,East,8.1,-,N/A,,Overcast,80,2013-05-28 10:53:00
6:53 AM,51.1,43.0,74,29.86,10.0,ESE,9.2,-,N/A,,Overcast,110,2013-05-28 11:53:00
7:53 AM,50.0,44.1,80,29.85,10.0,ESE,8.1,-,N/A,,Overcast,120,2013-05-28 12:53:00
8:01 AM,50.0,44.6,82,29.83,10.0,ESE,6.9,-,N/A,,Overcast,120,2013-05-28 13:01:00
8:51 AM,50.0,46.4,87,29.83,2.0,ESE,8.1,-,0.00,Rain,Light Rain,110,2013-05-28 13:51:00
8:53 AM,50.0,46.9,89,29.84,1.8,ESE,8.1,-,0.00,Rain,Light Rain,120,2013-05-28 13:53:00
9:11 AM,50.0,48.2,94,29.82,3.0,East,6.9,-,0.01,Rain,Light Rain,90,2013-05-28 14:11:00
9:39 AM,50.0,48.2,94,29.82,2.5,ENE,5.8,-,0.01,,Overcast,70,2013-05-28 14:39:00
9:50 AM,50.0,48.2,94,29.82,4.0,ENE,5.8,-,0.01,,Overcast,70,2013-05-28 14:50:00
9:53 AM,50.0,48.9,96,29.83,5.0,East,5.8,-,0.01,,Overcast,90,2013-05-28 14:53:00
10:53 AM,51.1,48.9,92,29.83,7.0,East,5.8,-,N/A,,Overcast,90,2013-05-28 15:53:00
11:53 AM,52.0,48.9,89,29.81,10.0,East,9.2,-,N/A,,Overcast,100,2013-05-28 16:53:00
12:53 PM,53.1,50.0,89,29.81,10.0,NE,4.6,-,N/A,,Overcast,50,2013-05-28 17:53:00
1:53 PM,54.0,51.1,90,29.81,7.0,ESE,8.1,-,N/A,,Overcast,110,2013-05-28 18:53:00
2:53 PM,54.0,51.1,90,29.81,10.0,East,6.9,-,N/A,,Overcast,100,2013-05-28 19:53:00
3:53 PM,53.1,52.0,96,29.81,3.0,ESE,6.9,-,0.00,Rain,Light Rain,120,2013-05-28 20:53:00
4:07 PM,53.6,51.8,94,29.79,6.0,ESE,6.9,-,0.00,,Overcast,120,2013-05-28 21:07:00
4:17 PM,53.6,53.6,100,29.79,4.0,East,6.9,-,0.00,Rain,Light Rain,100,2013-05-28 21:17:00
4:30 PM,53.6,53.6,100,29.78,6.0,East,5.8,-,0.01,,Overcast,90,2013-05-28 21:30:00
4:53 PM,54.0,52.0,93,29.80,10.0,ESE,6.9,-,0.01,,Overcast,110,2013-05-28 21:53:00
5:49 PM,53.6,51.8,94,29.78,2.0,ESE,5.8,-,0.01,Rain,Light Rain,110,2013-05-28 22:49:00
5:53 PM,53.1,52.0,96,29.80,2.5,ESE,5.8,-,0.01,Rain,Light Rain,120,2013-05-28 22:53:00
6:00 PM,53.6,51.8,94,29.78,3.0,ESE,5.8,-,0.00,Rain,Light Rain,120,2013-05-28 23:00:00
6:04 PM,53.6,51.8,94,29.78,1.8,ESE,4.6,-,0.03,Rain,Light Rain,120,2013-05-28 23:04:00
6:19 PM,51.8,51.8,100,29.79,0.5,ESE,3.5,-,0.23,Fog-Rain,Heavy Rain,120,2013-05-28 23:19:00
6:30 PM,51.8,51.8,100,29.79,1.0,Calm,Calm,-,0.32,Rain,Heavy Rain,0,2013-05-28 23:30:00
6:47 PM,53.6,51.8,94,29.79,3.0,Calm,Calm,-,0.36,Rain,Light Rain,0,2013-05-28 23:47:00
6:48 PM,53.1,52.0,96,29.80,3.0,ESE,3.5,-,0.36,Rain,Light Rain,110,2013-05-28 23:48:00
7:44 PM,53.6,51.8,94,29.78,10.0,Calm,Calm,-,0.01,Rain,Light Rain,0,2013-05-29 00:44:00
7:53 PM,53.1,52.0,96,29.80,10.0,Calm,Calm,-,0.01,,Overcast,0,2013-05-29 00:53:00
8:53 PM,53.1,52.0,96,29.78,7.0,Calm,Calm,-,N/A,,Overcast,0,2013-05-29 01:53:00
9:22 PM,51.8,51.8,100,29.76,6.0,Calm,Calm,-,N/A,,Overcast,0,2013-05-29 02:22:00
9:53 PM,52.0,52.0,100,29.79,4.0,Calm,Calm,-,N/A,,Overcast,0,2013-05-29 02:53:00
10:28 PM,51.8,51.8,100,29.79,1.8,South,3.5,-,N/A,,Overcast,190,2013-05-29 03:28:00
10:53 PM,52.0,52.0,100,29.81,1.0,SSW,5.8,-,N/A,,Mist,200,2013-05-29 03:53:00
11:00 PM,51.8,51.8,100,29.80,3.0,South,4.6,-,N/A,,Overcast,190,2013-05-29 04:00:00
11:53 PM,52.0,52.0,100,29.81,10.0,Calm,Calm,-,N/A,,Overcast,0,2013-05-29 04:53:00